This is the latest recevied weather packets stored in our database for station/object W9PEM-13. If no packets are shown the sender has not sent any weather packets the latest 10 day(s).
| Time | Temp. | Humidity | Pressure | Rain* | Wind** | Luminosity | Snow |
|---|---|---|---|---|---|---|---|
| 1787453242 | 15.56° C | 96% | 1015.2 hPa | 0.76 mm | - | 0 W/m² | - |
| 1787453136 | 16.11° C | 96% | 1015.2 hPa | 0.76 mm | - | 0 W/m² | - |
| 1787453079 | 15.56° C | 96% | 1015.2 hPa | 0.76 mm | - | 0 W/m² | - |
| 1787452898 | 16.11° C | 96% | 1015.2 hPa | 0.76 mm | - | 0 W/m² | - |
| 1787452552 | 16.11° C | 96% | 1015.1 hPa | 0.76 mm | - | 0 W/m² | - |
| 1787452298 | 16.11° C | 96% | 1015.1 hPa | 0.76 mm | - | 0 W/m² | - |
| 1787452004 | 16.67° C | 95% | 1015.2 hPa | 0.76 mm | - | 0 W/m² | - |
| 1787451697 | 16.67° C | 95% | 1015.2 hPa | 0.76 mm | - | 0 W/m² | - |
| 1787451457 | 16.67° C | 93% | 1015.2 hPa | 0.76 mm | - | 0 W/m² | - |
| 1787450745 | 16.67° C | 93% | 1015.4 hPa | 0.76 mm | - | 0 W/m² | - |
| 1787450556 | 16.67° C | 93% | 1015.4 hPa | 0.76 mm | - | 0 W/m² | - |
| 1787450473 | 16.67° C | 92% | 1015.4 hPa | 0.76 mm | - | 0 W/m² | - |
| 1787450197 | 16.67° C | 92% | 1015.4 hPa | 0.76 mm | - | 0 W/m² | - |
| 1787449904 | 16.11° C | 96% | 1015.5 hPa | 0 mm | - | 0 W/m² | - |
| 1787449597 | 16.11° C | 96% | 1015.5 hPa | 0 mm | - | 0 W/m² | - |
| 1787449441 | 16.11° C | 96% | 1014.8 hPa | 0 mm | - | 0 W/m² | - |
| 1787449133 | 16.11° C | 96% | 1014.8 hPa | 0 mm | - | 0 W/m² | - |
| 1787448762 | 16.67° C | 94% | 1014.8 hPa | 0 mm | - | 0 W/m² | - |
| 1787448533 | 16.67° C | 94% | 1014.8 hPa | 0 mm | - | 0 W/m² | - |
| 1787448338 | 17.22° C | 95% | 1014.7 hPa | 0 mm | - | 0 W/m² | - |
| 1787447932 | 17.22° C | 95% | 1014.7 hPa | 0 mm | - | 0 W/m² | - |
| 1787447625 | 17.78° C | 94% | 1014.6 hPa | 0 mm | - | 0 W/m² | - |
| 1787447332 | 17.78° C | 94% | 1014.6 hPa | 0 mm | - | 0 W/m² | - |
| 1787446933 | 17.78° C | 94% | 1014.5 hPa | 0 mm | - | 0 W/m² | - |
| 1787446731 | 17.78° C | 94% | 1014.5 hPa | 0 mm | - | 0 W/m² | - |
* Rain latest hour (hover to see other rain measurements)
** Current wind speed in m/s (hover to see current wind gust speed)